sat.trackr.live / text

‹ back to catalog

STARLINK-37159

NORAD 68284 · 2026-055Y

PAYLOAD ACTIVE UNKNOWN

§ Identity

Operator
Country
US
Launch date
2026-03-19
Launch site
AFETR
Launch vehicle
Mass (kg)
RCS (m²)

Purposes: comms

External: N2YO · Heavens-Above · Gunter

§ Orbital elements

Epoch: 2026-05-24T21:37:50.548800Z

Period
93.85 min
Inclination
53.1602°
Eccentricity
0.0001118
Mean motion
15.34400985 rev/d
Perigee alt
461.9 km
Apogee alt
463.5 km
Semi-major
6,840.8 km
B*
1.0222e-3
RAAN
326.4079°
Arg perigee
89.6625°
Mean anomaly
270.4506°
Rev number
1,158

§ Raw data

STARLINK-371591 68284U 26055Y   26144.90127950  .00034321  00000+0  10222-2 0  99972 68284  53.1602 326.4079 0001118  89.6625 270.4506 15.34400985 11583

JSON: /api/v1/satellites/68284 · /tle

For live sub-satellite position, see the globe view (requires WebGL).

§ Visibility from observer

Set your observer location to see the next 7 days of passes ≥ 10°. The values pass through the URL so the page stays shareable.

No JS? Fill the form by hand. The geolocation button needs JavaScript.